Simultaneous Nadir Overpasses (SNOs) Predictions

Prediction of SNOs between GOES-14 and NOAA-20 Satellite Orbit:

Table of predicted SNOs for the next 14.0 days since TLE Epoch: 8/13/2022
Index Date Time (GOES-14) GOES-14 Lat,Lon NOAA-20 Lat,Lon Distance(km) Time Diff (sec)
1 08/13/2022 08:26:27 -0.44,-104.42 -0.28,-105.06 73.30 80
2 08/14/2022 08:05:01 -0.43,-104.42 -1.30,-100.53 442.90 80
3 08/15/2022 20:26:58 0.45,-104.66 0.21,-105.85 134.92 80
4 08/16/2022 20:10:51 0.44,-104.67 1.17,-101.31 382.92 80
5 08/18/2022 08:32:37 -0.46,-104.45 0.01,-106.57 242.21 80
6 08/19/2022 08:11:12 -0.45,-104.44 -1.01,-102.04 273.88 80
7 08/20/2022 20:33:07 0.47,-104.66 -0.14,-107.34 306.79 80
8 08/21/2022 20:17:02 0.47,-104.66 0.88,-102.81 210.84 80
9 08/23/2022 08:38:48 -0.49,-104.46 0.30,-108.08 411.42 80
10 08/24/2022 08:17:23 -0.49,-104.46 -0.72,-103.55 104.47 80
11 08/25/2022 20:39:18 0.50,-104.65 -0.43,-108.85 479.18 80
12 08/26/2022 20:23:12 0.50,-104.66 0.60,-104.32 38.74 80
